No particular awareness of the weather is required.    There are no Weather-warnings


Meteo18 Weather Cam more information Meteo18 Weather Cam


Thunder radar more information blitzortung!


Rain radar more information rain snow radar


Visit our other weather sites:

Template documentation
and downloads

And another site



Weather Underground History page Text

Daily Summary for April 26, 2017 Units:  Both    English   Metric
« Previous Day
Next Day »
Daily Weekly Monthly Yearly Custom
  High: Low: Average:
Temperature: 52 °F /  11.1 °C 37 °F /  2.8 °C 41.9 °F /  5.5 °C
Dew Point: 36.9 °F /  2.7 °C 26.1 °F /  -3.3 °C 34.2 °F /  1.2 °C
Humidity: 95 % 39 % 77 %
Wind Speed: 10 mph /  16.1 km/h - 2.9 mph /  4.6 km/h
Wind Gust: 15 mph /  24.1 km/h - -
Wind:- - SSW
Pressure: 30 in /  1016.8 hPa 29.9 in /  1011.4 hPa -
Precipitation: 0.02 in /  0.5 mm    
Historical Graphs
 
 
Tabular Data for April 26, 2017
Time Temperature Dew Point Pressure Wind Wind Speed Wind Gust Humidity Rainfall Rate (Hourly)
00:02 37.6 °F /  3.1 °C 36 °F /  2.2 °C 29.9 in /  1011.7 hPa Calm     94 % 0 in /  0.0 mm
00:12 37.6 °F /  3.1 °C 35.8 °F /  2.1 °C 29.9 in /  1011.7 hPa Calm     93 % 0 in /  0.0 mm
00:17 37.6 °F /  3.1 °C 36 °F /  2.2 °C 29.9 in /  1011.7 hPa Calm     94 % 0 in /  0.0 mm
00:22 37.6 °F /  3.1 °C 36 °F /  2.2 °C 29.9 in /  1011.7 hPa Calm     94 % 0 in /  0.0 mm
00:32 37.6 °F /  3.1 °C 36 °F /  2.2 °C 29.9 in /  1011.7 hPa Calm     94 % 0 in /  0.0 mm
00:42 37.6 °F /  3.1 °C 36 °F /  2.2 °C 29.9 in /  1011.7 hPa Calm     94 % 0 in /  0.0 mm
00:47 37.6 °F /  3.1 °C 36 °F /  2.2 °C 29.9 in /  1011.7 hPa Calm     94 % 0 in /  0.0 mm
00:57 37.6 °F /  3.1 °C 36 °F /  2.2 °C 29.9 in /  1012.1 hPa Calm     94 % 0 in /  0.0 mm
01:02 37.6 °F /  3.1 °C 36 °F /  2.2 °C 29.9 in /  1012.1 hPa Calm     94 % 0 in /  0.0 mm
01:12 37.4 °F /  3.0 °C 35.8 °F /  2.1 °C 29.9 in /  1012.1 hPa Calm     94 % 0 in /  0.0 mm
01:17 37.4 °F /  3.0 °C 35.8 °F /  2.1 °C 29.9 in /  1012.1 hPa Calm     94 % 0 in /  0.0 mm
01:22 37.4 °F /  3.0 °C 35.8 °F /  2.1 °C 29.9 in /  1012.1 hPa Calm     94 % 0 in /  0.0 mm
01:27 37.2 °F /  2.9 °C 35.6 °F /  2.0 °C 29.9 in /  1012.1 hPa Calm     94 % 0 in /  0.0 mm
01:32 37.2 °F /  2.9 °C 35.6 °F /  2.0 °C 29.9 in /  1012.1 hPa Calm     94 % 0 in /  0.0 mm
01:42 37.4 °F /  3.0 °C 35.8 °F /  2.1 °C 29.9 in /  1012.1 hPa Calm     94 % 0 in /  0.0 mm
01:47 37.2 °F /  2.9 °C 35.6 °F /  2.0 °C 29.9 in /  1012.1 hPa Calm     94 % 0 in /  0.0 mm
01:52 37.2 °F /  2.9 °C 35.6 °F /  2.0 °C 29.9 in /  1012.1 hPa Calm     94 % 0 in /  0.0 mm
01:57 37.4 °F /  3.0 °C 35.8 °F /  2.1 °C 29.9 in /  1012.1 hPa Calm     94 % 0 in /  0.0 mm
02:02 37.4 °F /  3.0 °C 35.8 °F /  2.1 °C 29.9 in /  1012.1 hPa Calm     94 % 0 in /  0.0 mm
02:12 37.4 °F /  3.0 °C 35.8 °F /  2.1 °C 29.9 in /  1012.1 hPa Calm     94 % 0 in /  0.0 mm
02:17 37.4 °F /  3.0 °C 35.8 °F /  2.1 °C 29.9 in /  1012.1 hPa Calm     94 % 0 in /  0.0 mm
02:22 37.4 °F /  3.0 °C 35.8 °F /  2.1 °C 29.9 in /  1012.1 hPa NW 1 mph /  1.6 km/h   94 % 0 in /  0.0 mm
02:32 37.2 °F /  2.9 °C 35.6 °F /  2.0 °C 29.9 in /  1012.1 hPa WNW 1 mph /  1.6 km/h 2 mph /  3.2 km/h 94 % 0 in /  0.0 mm
02:37 37.4 °F /  3.0 °C 35.8 °F /  2.1 °C 29.9 in /  1012.1 hPa WNW 1 mph /  1.6 km/h 2 mph /  3.2 km/h 94 % 0 in /  0.0 mm
02:42 37.4 °F /  3.0 °C 35.8 °F /  2.1 °C 29.9 in /  1012.1 hPa Calm   2 mph /  3.2 km/h 94 % 0 in /  0.0 mm
02:52 37.4 °F /  3.0 °C 35.8 °F /  2.1 °C 29.9 in /  1012.1 hPa Calm   2 mph /  3.2 km/h 94 % 0 in /  0.0 mm
02:57 37.4 °F /  3.0 °C 35.8 °F /  2.1 °C 29.9 in /  1011.7 hPa Calm   1 mph /  1.6 km/h 94 % 0 in /  0.0 mm
03:02 37.4 °F /  3.0 °C 35.8 °F /  2.1 °C 29.9 in /  1012.1 hPa Calm   1 mph /  1.6 km/h 94 % 0 in /  0.0 mm
03:12 37.6 °F /  3.1 °C 36 °F /  2.2 °C 29.9 in /  1012.1 hPa Calm   1 mph /  1.6 km/h 94 % 0 in /  0.0 mm
03:17 37.2 °F /  2.9 °C 35.6 °F /  2.0 °C 29.9 in /  1011.7 hPa WNW 1 mph /  1.6 km/h 2 mph /  3.2 km/h 94 % 0 in /  0.0 mm
03:22 37.2 °F /  2.9 °C 35.6 °F /  2.0 °C 29.9 in /  1011.7 hPa Calm   2 mph /  3.2 km/h 94 % 0 in /  0.0 mm
03:32 37.2 °F /  2.9 °C 35.6 °F /  2.0 °C 29.9 in /  1011.7 hPa Calm   2 mph /  3.2 km/h 94 % 0 in /  0.0 mm
03:37 37.2 °F /  2.9 °C 35.6 °F /  2.0 °C 29.9 in /  1011.4 hPa Calm   1 mph /  1.6 km/h 94 % 0 in /  0.0 mm
03:42 37.2 °F /  2.9 °C 35.6 °F /  2.0 °C 29.9 in /  1011.4 hPa Calm   1 mph /  1.6 km/h 94 % 0 in /  0.0 mm
03:47 37.2 °F /  2.9 °C 35.6 °F /  2.0 °C 29.9 in /  1011.4 hPa Calm     94 % 0 in /  0.0 mm
03:52 37.2 °F /  2.9 °C 35.6 °F /  2.0 °C 29.9 in /  1011.4 hPa WNW 1 mph /  1.6 km/h   94 % 0 in /  0.0 mm
03:57 37.2 °F /  2.9 °C 35.6 °F /  2.0 °C 29.9 in /  1011.4 hPa WNW 1 mph /  1.6 km/h 2 mph /  3.2 km/h 94 % 0 in /  0.0 mm
04:02 37.2 °F /  2.9 °C 35.6 °F /  2.0 °C 29.9 in /  1011.7 hPa West 1 mph /  1.6 km/h 2 mph /  3.2 km/h 94 % 0 in /  0.0 mm
04:12 37.2 °F /  2.9 °C 35.6 °F /  2.0 °C 29.9 in /  1011.7 hPa NNW 1 mph /  1.6 km/h 3 mph /  4.8 km/h 94 % 0 in /  0.0 mm
04:17 37 °F /  2.8 °C 35.4 °F /  1.9 °C 29.9 in /  1011.4 hPa Calm   4 mph /  6.4 km/h 94 % 0 in /  0.0 mm
04:22 37 °F /  2.8 °C 35.4 °F /  1.9 °C 29.9 in /  1011.7 hPa NW 2 mph /  3.2 km/h 4 mph /  6.4 km/h 94 % 0 in /  0.0 mm
04:32 37 °F /  2.8 °C 35.4 °F /  1.9 °C 29.9 in /  1011.4 hPa Calm   4 mph /  6.4 km/h 94 % 0 in /  0.0 mm
04:42 37.2 °F /  2.9 °C 35.6 °F /  2.0 °C 29.9 in /  1011.4 hPa Calm   3 mph /  4.8 km/h 94 % 0 in /  0.0 mm
04:47 37.2 °F /  2.9 °C 35.6 °F /  2.0 °C 29.9 in /  1011.4 hPa Calm   3 mph /  4.8 km/h 94 % 0 in /  0.0 mm
04:57 37.2 °F /  2.9 °C 35.6 °F /  2.0 °C 29.9 in /  1011.4 hPa Calm   3 mph /  4.8 km/h 94 % 0 in /  0.0 mm
05:02 37.2 °F /  2.9 °C 35.6 °F /  2.0 °C 29.9 in /  1011.4 hPa NW 3 mph /  4.8 km/h 3 mph /  4.8 km/h 94 % 0 in /  0.0 mm
05:12 37.2 °F /  2.9 °C 35.6 °F /  2.0 °C 29.9 in /  1011.4 hPa WNW 2 mph /  3.2 km/h 3 mph /  4.8 km/h 94 % 0 in /  0.0 mm
05:17 37.4 °F /  3.0 °C 36.1 °F /  2.3 °C 29.9 in /  1011.7 hPa Calm   3 mph /  4.8 km/h 95 % 0 in /  0.0 mm
05:22 37.4 °F /  3.0 °C 36.1 °F /  2.3 °C 29.9 in /  1011.7 hPa WNW 1 mph /  1.6 km/h 3 mph /  4.8 km/h 95 % 0 in /  0.0 mm
05:27 37.4 °F /  3.0 °C 36.1 °F /  2.3 °C 29.9 in /  1011.4 hPa Calm   3 mph /  4.8 km/h 95 % 0 in /  0.0 mm
05:32 37.4 °F /  3.0 °C 36.1 °F /  2.3 °C 29.9 in /  1011.4 hPa West 1 mph /  1.6 km/h 3 mph /  4.8 km/h 95 % 0 in /  0.0 mm
05:37 37.6 °F /  3.1 °C 36.3 °F /  2.4 °C 29.9 in /  1011.7 hPa Calm   2 mph /  3.2 km/h 95 % 0 in /  0.0 mm
05:42 37.4 °F /  3.0 °C 36.1 °F /  2.3 °C 29.9 in /  1011.7 hPa WNW 1 mph /  1.6 km/h 2 mph /  3.2 km/h 95 % 0 in /  0.0 mm
05:47 37.4 °F /  3.0 °C 36.1 °F /  2.3 °C 29.9 in /  1011.7 hPa Calm   3 mph /  4.8 km/h 95 % 0 in /  0.0 mm
05:52 37.6 °F /  3.1 °C 36.3 °F /  2.4 °C 29.9 in /  1011.7 hPa Calm   3 mph /  4.8 km/h 95 % 0 in /  0.0 mm
05:57 37.6 °F /  3.1 °C 36.3 °F /  2.4 °C 29.9 in /  1011.7 hPa WNW 1 mph /  1.6 km/h 3 mph /  4.8 km/h 95 % 0.01 in /  0.3 mm
06:02 37.6 °F /  3.1 °C 36.3 °F /  2.4 °C 29.9 in /  1011.7 hPa Calm   3 mph /  4.8 km/h 95 % 0.01 in /  0.3 mm
06:12 37.6 °F /  3.1 °C 36.3 °F /  2.4 °C 29.9 in /  1011.7 hPa Calm   3 mph /  4.8 km/h 95 % 0.01 in /  0.3 mm
06:17 37.6 °F /  3.1 °C 36.3 °F /  2.4 °C 29.9 in /  1011.7 hPa Calm   2 mph /  3.2 km/h 95 % 0.01 in /  0.3 mm
06:22 37.6 °F /  3.1 °C 36.3 °F /  2.4 °C 29.9 in /  1011.7 hPa Calm   2 mph /  3.2 km/h 95 % 0.01 in /  0.3 mm
06:27 37.6 °F /  3.1 °C 36.3 °F /  2.4 °C 29.9 in /  1012.1 hPa Calm     95 % 0.01 in /  0.3 mm
06:32 37.6 °F /  3.1 °C 36.3 °F /  2.4 °C 29.9 in /  1012.1 hPa Calm     95 % 0.01 in /  0.3 mm
06:37 37.6 °F /  3.1 °C 36.3 °F /  2.4 °C 29.9 in /  1012.1 hPa Calm     95 % 0.01 in /  0.3 mm
06:42 37.6 °F /  3.1 °C 36.3 °F /  2.4 °C 29.9 in /  1011.7 hPa Calm   2 mph /  3.2 km/h 95 % 0.01 in /  0.3 mm
06:52 37.6 °F /  3.1 °C 36.3 °F /  2.4 °C 29.9 in /  1012.1 hPa Calm   2 mph /  3.2 km/h 95 % 0.01 in /  0.3 mm
07:02 37.6 °F /  3.1 °C 36.3 °F /  2.4 °C 29.9 in /  1011.7 hPa Calm   1 mph /  1.6 km/h 95 % 0 in /  0.0 mm
07:07 37.6 °F /  3.1 °C 36.3 °F /  2.4 °C 29.9 in /  1012.1 hPa NNW 1 mph /  1.6 km/h 1 mph /  1.6 km/h 95 % 0 in /  0.0 mm
07:12 37.6 °F /  3.1 °C 36.3 °F /  2.4 °C 29.9 in /  1012.1 hPa Calm   3 mph /  4.8 km/h 95 % 0 in /  0.0 mm
07:17 37.8 °F /  3.2 °C 36.5 °F /  2.5 °C 29.9 in /  1012.1 hPa Calm   3 mph /  4.8 km/h 95 % 0 in /  0.0 mm
07:22 37.8 °F /  3.2 °C 36.5 °F /  2.5 °C 29.9 in /  1012.1 hPa WNW 2 mph /  3.2 km/h 3 mph /  4.8 km/h 95 % 0 in /  0.0 mm
07:27 37.8 °F /  3.2 °C 36.5 °F /  2.5 °C 29.9 in /  1012.4 hPa NNW 1 mph /  1.6 km/h 3 mph /  4.8 km/h 95 % 0 in /  0.0 mm
07:32 37.8 °F /  3.2 °C 36.5 °F /  2.5 °C 29.9 in /  1012.1 hPa Calm   4 mph /  6.4 km/h 95 % 0 in /  0.0 mm
07:37 37.9 °F /  3.3 °C 36.3 °F /  2.4 °C 29.9 in /  1012.4 hPa NW 1 mph /  1.6 km/h 4 mph /  6.4 km/h 94 % 0 in /  0.0 mm
07:42 37.9 °F /  3.3 °C 36.3 °F /  2.4 °C 29.9 in /  1012.4 hPa North 2 mph /  3.2 km/h 4 mph /  6.4 km/h 94 % 0 in /  0.0 mm
07:47 37.9 °F /  3.3 °C 36.3 °F /  2.4 °C 29.9 in /  1012.4 hPa North 2 mph /  3.2 km/h 4 mph /  6.4 km/h 94 % 0 in /  0.0 mm
07:52 38.1 °F /  3.4 °C 36.5 °F /  2.5 °C 29.9 in /  1012.1 hPa NNE 1 mph /  1.6 km/h 4 mph /  6.4 km/h 94 % 0 in /  0.0 mm
07:57 38.1 °F /  3.4 °C 36.5 °F /  2.5 °C 29.9 in /  1012.4 hPa NNE 7 mph /  11.3 km/h 7 mph /  11.3 km/h 94 % 0 in /  0.0 mm
08:02 38.5 °F /  3.6 °C 36.7 °F /  2.6 °C 29.9 in /  1012.4 hPa NE 3 mph /  4.8 km/h 9 mph /  14.5 km/h 93 % 0.01 in /  0.3 mm
08:12 38.7 °F /  3.7 °C 36.5 °F /  2.5 °C 29.9 in /  1012.8 hPa NNW 3 mph /  4.8 km/h 10 mph /  16.1 km/h 92 % 0.01 in /  0.3 mm
08:17 38.7 °F /  3.7 °C 36.5 °F /  2.5 °C 29.9 in /  1012.8 hPa NW 5 mph /  8.0 km/h 10 mph /  16.1 km/h 92 % 0.01 in /  0.3 mm
08:22 38.8 °F /  3.8 °C 36.7 °F /  2.6 °C 29.9 in /  1012.8 hPa NNW 7 mph /  11.3 km/h 10 mph /  16.1 km/h 92 % 0.01 in /  0.3 mm
08:27 38.8 °F /  3.8 °C 36.7 °F /  2.6 °C 29.9 in /  1012.4 hPa NE 6 mph /  9.7 km/h 10 mph /  16.1 km/h 92 % 0.01 in /  0.3 mm
08:32 38.8 °F /  3.8 °C 36.7 °F /  2.6 °C 29.9 in /  1012.8 hPa North 5 mph /  8.0 km/h 8 mph /  12.9 km/h 92 % 0.01 in /  0.3 mm
08:42 39 °F /  3.9 °C 36.7 °F /  2.6 °C 29.9 in /  1012.8 hPa North 5 mph /  8.0 km/h 10 mph /  16.1 km/h 91 % 0.01 in /  0.3 mm
08:47 39 °F /  3.9 °C 36.3 °F /  2.4 °C 29.9 in /  1012.8 hPa NNW 6 mph /  9.7 km/h 10 mph /  16.1 km/h 90 % 0.01 in /  0.3 mm
08:52 39.4 °F /  4.1 °C 36.7 °F /  2.6 °C 29.9 in /  1012.8 hPa NNE 5 mph /  8.0 km/h 10 mph /  16.1 km/h 90 % 0.01 in /  0.3 mm
08:57 39.4 °F /  4.1 °C 36.7 °F /  2.6 °C 29.9 in /  1012.8 hPa NNE 1 mph /  1.6 km/h 10 mph /  16.1 km/h 90 % 0.01 in /  0.3 mm
09:02 39.4 °F /  4.1 °C 36.7 °F /  2.6 °C 29.9 in /  1012.8 hPa North 4 mph /  6.4 km/h 7 mph /  11.3 km/h 90 % 0 in /  0.0 mm
09:12 39.9 °F /  4.4 °C 36.9 °F /  2.7 °C 29.9 in /  1013.1 hPa NNE 6 mph /  9.7 km/h 8 mph /  12.9 km/h 89 % 0 in /  0.0 mm
09:17 39.7 °F /  4.3 °C 36.5 °F /  2.5 °C 29.9 in /  1013.1 hPa North 10 mph /  16.1 km/h 10 mph /  16.1 km/h 88 % 0 in /  0.0 mm
09:22 39.7 °F /  4.3 °C 36.1 °F /  2.3 °C 29.9 in /  1013.1 hPa North 3 mph /  4.8 km/h 10 mph /  16.1 km/h 87 % 0 in /  0.0 mm
09:32 39.9 °F /  4.4 °C 36.7 °F /  2.6 °C 29.9 in /  1013.4 hPa NNE 4 mph /  6.4 km/h 10 mph /  16.1 km/h 88 % 0 in /  0.0 mm
09:42 40.3 °F /  4.6 °C 36.7 °F /  2.6 °C 29.9 in /  1013.4 hPa NNE 1 mph /  1.6 km/h 10 mph /  16.1 km/h 87 % 0 in /  0.0 mm
09:52 40.3 °F /  4.6 °C 36.5 °F /  2.5 °C 29.9 in /  1013.4 hPa NNE 8 mph /  12.9 km/h 12 mph /  19.3 km/h 86 % 0 in /  0.0 mm
09:57 40.3 °F /  4.6 °C 36.5 °F /  2.5 °C 29.9 in /  1013.4 hPa NE 2 mph /  3.2 km/h 12 mph /  19.3 km/h 86 % 0 in /  0.0 mm
10:02 40.3 °F /  4.6 °C 36.1 °F /  2.3 °C 29.9 in /  1013.4 hPa NNE 7 mph /  11.3 km/h 11 mph /  17.7 km/h 85 % 0 in /  0.0 mm
10:07 40.5 °F /  4.7 °C 36.3 °F /  2.4 °C 29.9 in /  1013.8 hPa NNE 3 mph /  4.8 km/h 11 mph /  17.7 km/h 85 % 0 in /  0.0 mm
10:12 40.6 °F /  4.8 °C 36.1 °F /  2.3 °C 29.9 in /  1013.8 hPa North 8 mph /  12.9 km/h 10 mph /  16.1 km/h 84 % 0 in /  0.0 mm
10:17 40.6 °F /  4.8 °C 36.1 °F /  2.3 °C 29.9 in /  1013.8 hPa NNW 3 mph /  4.8 km/h 10 mph /  16.1 km/h 84 % 0 in /  0.0 mm
10:22 40.6 °F /  4.8 °C 36.1 °F /  2.3 °C 29.9 in /  1013.8 hPa North 3 mph /  4.8 km/h 13 mph /  20.9 km/h 84 % 0 in /  0.0 mm
10:32 40.6 °F /  4.8 °C 35.6 °F /  2.0 °C 29.9 in /  1013.8 hPa NNE 7 mph /  11.3 km/h 13 mph /  20.9 km/h 82 % 0 in /  0.0 mm
10:42 40.8 °F /  4.9 °C 36.1 °F /  2.3 °C 29.9 in /  1013.8 hPa NE 4 mph /  6.4 km/h 13 mph /  20.9 km/h 83 % 0 in /  0.0 mm
10:52 40.6 °F /  4.8 °C 35.6 °F /  2.0 °C 29.9 in /  1013.8 hPa NE 9 mph /  14.5 km/h 13 mph /  20.9 km/h 82 % 0 in /  0.0 mm
10:57 40.6 °F /  4.8 °C 36.1 °F /  2.3 °C 29.9 in /  1013.8 hPa NNE 6 mph /  9.7 km/h 13 mph /  20.9 km/h 84 % 0 in /  0.0 mm
11:02 40.6 °F /  4.8 °C 35.6 °F /  2.0 °C 29.9 in /  1013.8 hPa NE 6 mph /  9.7 km/h 13 mph /  20.9 km/h 82 % 0 in /  0.0 mm
11:07 40.8 °F /  4.9 °C 35.8 °F /  2.1 °C 29.9 in /  1014.1 hPa NNE 7 mph /  11.3 km/h 13 mph /  20.9 km/h 82 % 0 in /  0.0 mm
11:12 41.2 °F /  5.1 °C 36.1 °F /  2.3 °C 29.9 in /  1014.1 hPa NE 5 mph /  8.0 km/h 13 mph /  20.9 km/h 82 % 0 in /  0.0 mm
11:17 41.4 °F /  5.2 °C 36 °F /  2.2 °C 29.9 in /  1014.1 hPa NE 6 mph /  9.7 km/h 13 mph /  20.9 km/h 81 % 0 in /  0.0 mm
11:22 41.5 °F /  5.3 °C 35.8 °F /  2.1 °C 30 in /  1014.4 hPa ENE 3 mph /  4.8 km/h 12 mph /  19.3 km/h 80 % 0 in /  0.0 mm
11:32 41.5 °F /  5.3 °C 35.6 °F /  2.0 °C 30 in /  1014.4 hPa NE 10 mph /  16.1 km/h 13 mph /  20.9 km/h 79 % 0 in /  0.0 mm
11:42 42.3 °F /  5.7 °C 36 °F /  2.2 °C 30 in /  1014.4 hPa NE 5 mph /  8.0 km/h 13 mph /  20.9 km/h 78 % 0 in /  0.0 mm
11:52 42.6 °F /  5.9 °C 36.5 °F /  2.5 °C 30 in /  1014.4 hPa NE 6 mph /  9.7 km/h 11 mph /  17.7 km/h 79 % 0 in /  0.0 mm
12:02 42.6 °F /  5.9 °C 35.2 °F /  1.8 °C 30 in /  1014.4 hPa NE 6 mph /  9.7 km/h 11 mph /  17.7 km/h 75 % 0 in /  0.0 mm
12:07 43.2 °F /  6.2 °C 36.1 °F /  2.3 °C 30 in /  1014.4 hPa ENE 4 mph /  6.4 km/h 11 mph /  17.7 km/h 76 % 0 in /  0.0 mm
12:12 43.5 °F /  6.4 °C 35.8 °F /  2.1 °C 30 in /  1014.4 hPa NE 6 mph /  9.7 km/h 11 mph /  17.7 km/h 74 % 0 in /  0.0 mm
12:17 43.7 °F /  6.5 °C 36.3 °F /  2.4 °C 30 in /  1014.4 hPa NE 4 mph /  6.4 km/h 11 mph /  17.7 km/h 75 % 0 in /  0.0 mm
12:22 43.9 °F /  6.6 °C 35.8 °F /  2.1 °C 30 in /  1014.4 hPa NE 5 mph /  8.0 km/h 9 mph /  14.5 km/h 73 % 0 in /  0.0 mm
12:32 43.9 °F /  6.6 °C 35.4 °F /  1.9 °C 30 in /  1014.4 hPa ENE 4 mph /  6.4 km/h 9 mph /  14.5 km/h 72 % 0 in /  0.0 mm
12:42 43.9 °F /  6.6 °C 35.4 °F /  1.9 °C 30 in /  1014.4 hPa NE 3 mph /  4.8 km/h 11 mph /  17.7 km/h 72 % 0 in /  0.0 mm
12:47 44.2 °F /  6.8 °C 35.4 °F /  1.9 °C 30 in /  1014.4 hPa ENE 3 mph /  4.8 km/h 11 mph /  17.7 km/h 71 % 0 in /  0.0 mm
12:52 44.4 °F /  6.9 °C 35.6 °F /  2.0 °C 30 in /  1014.4 hPa Calm   11 mph /  17.7 km/h 71 % 0 in /  0.0 mm
13:02 45.1 °F /  7.3 °C 35.6 °F /  2.0 °C 30 in /  1014.4 hPa NE 10 mph /  16.1 km/h 11 mph /  17.7 km/h 69 % 0 in /  0.0 mm
13:07 45.1 °F /  7.3 °C 34.9 °F /  1.6 °C 30 in /  1014.4 hPa NNE 7 mph /  11.3 km/h 11 mph /  17.7 km/h 67 % 0 in /  0.0 mm
13:17 45.7 °F /  7.6 °C 34.2 °F /  1.2 °C 30 in /  1014.4 hPa NNE 9 mph /  14.5 km/h 12 mph /  19.3 km/h 64 % 0 in /  0.0 mm
13:22 45.9 °F /  7.7 °C 35.1 °F /  1.7 °C 29.9 in /  1014.1 hPa NNW 4 mph /  6.4 km/h 11 mph /  17.7 km/h 66 % 0 in /  0.0 mm
13:32 46.4 °F /  8.0 °C 35.6 °F /  2.0 °C 30 in /  1014.4 hPa NNW 5 mph /  8.0 km/h 14 mph /  22.5 km/h 66 % 0 in /  0.0 mm
13:42 46.9 °F /  8.3 °C 35.4 °F /  1.9 °C 30 in /  1014.4 hPa NE 9 mph /  14.5 km/h 11 mph /  17.7 km/h 64 % 0 in /  0.0 mm
13:47 46.6 °F /  8.1 °C 31.6 °F /  -0.2 °C 30 in /  1014.4 hPa NE 6 mph /  9.7 km/h 11 mph /  17.7 km/h 56 % 0 in /  0.0 mm
13:52 46.9 °F /  8.3 °C 32.5 °F /  0.3 °C 29.9 in /  1014.1 hPa NNE 3 mph /  4.8 km/h 12 mph /  19.3 km/h 57 % 0 in /  0.0 mm
13:57 47.7 °F /  8.7 °C 34 °F /  1.1 °C 29.9 in /  1014.1 hPa NNW 4 mph /  6.4 km/h 12 mph /  19.3 km/h 59 % 0 in /  0.0 mm
14:02 47.7 °F /  8.7 °C 32.7 °F /  0.4 °C 29.9 in /  1014.1 hPa NNW 3 mph /  4.8 km/h 15 mph /  24.1 km/h 56 % 0 in /  0.0 mm
14:12 47.7 °F /  8.7 °C 33.6 °F /  0.9 °C 29.9 in /  1014.1 hPa NW 7 mph /  11.3 km/h 15 mph /  24.1 km/h 58 % 0 in /  0.0 mm
14:17 47.5 °F /  8.6 °C 33.4 °F /  0.8 °C 29.9 in /  1014.1 hPa NW 6 mph /  9.7 km/h 14 mph /  22.5 km/h 58 % 0 in /  0.0 mm
14:22 47.1 °F /  8.4 °C 32.2 °F /  0.1 °C 29.9 in /  1014.1 hPa North 6 mph /  9.7 km/h 14 mph /  22.5 km/h 56 % 0 in /  0.0 mm
14:32 46.9 °F /  8.3 °C 32 °F /  0.0 °C 30 in /  1014.4 hPa NE 5 mph /  8.0 km/h 13 mph /  20.9 km/h 56 % 0 in /  0.0 mm
14:42 47.1 °F /  8.4 °C 32.7 °F /  0.4 °C 29.9 in /  1014.1 hPa NE 4 mph /  6.4 km/h 13 mph /  20.9 km/h 57 % 0 in /  0.0 mm
14:52 46.9 °F /  8.3 °C 33.4 °F /  0.8 °C 29.9 in /  1014.1 hPa NE 4 mph /  6.4 km/h 11 mph /  17.7 km/h 59 % 0 in /  0.0 mm
15:02 47.1 °F /  8.4 °C 31.8 °F /  -0.1 °C 29.9 in /  1014.1 hPa NW 5 mph /  8.0 km/h 14 mph /  22.5 km/h 55 % 0 in /  0.0 mm
15:12 47.1 °F /  8.4 °C 28.9 °F /  -1.7 °C 30 in /  1014.4 hPa NNW 5 mph /  8.0 km/h 14 mph /  22.5 km/h 49 % 0 in /  0.0 mm
15:22 47.8 °F /  8.8 °C 31.1 °F /  -0.5 °C 29.9 in /  1014.1 hPa NNE 5 mph /  8.0 km/h 12 mph /  19.3 km/h 52 % 0 in /  0.0 mm
15:32 48.2 °F /  9.0 °C 30.9 °F /  -0.6 °C 29.9 in /  1014.1 hPa NNE 5 mph /  8.0 km/h 11 mph /  17.7 km/h 51 % 0 in /  0.0 mm
15:37 48.7 °F /  9.3 °C 30.9 °F /  -0.6 °C 29.9 in /  1014.1 hPa NW 6 mph /  9.7 km/h 11 mph /  17.7 km/h 50 % 0 in /  0.0 mm
15:42 48.6 °F /  9.2 °C 30.2 °F /  -1.0 °C 29.9 in /  1014.1 hPa North 10 mph /  16.1 km/h 11 mph /  17.7 km/h 49 % 0 in /  0.0 mm
15:52 47.8 °F /  8.8 °C 30.6 °F /  -0.8 °C 29.9 in /  1014.1 hPa NNE 1 mph /  1.6 km/h 15 mph /  24.1 km/h 51 % 0 in /  0.0 mm
16:02 48 °F /  8.9 °C 28.8 °F /  -1.8 °C 29.9 in /  1014.1 hPa NE 5 mph /  8.0 km/h 15 mph /  24.1 km/h 47 % 0 in /  0.0 mm
16:12 49.1 °F /  9.5 °C 30.2 °F /  -1.0 °C 29.9 in /  1014.1 hPa NE 3 mph /  4.8 km/h 12 mph /  19.3 km/h 48 % 0 in /  0.0 mm
16:17 49.5 °F /  9.7 °C 29.5 °F /  -1.4 °C 29.9 in /  1014.1 hPa NW 3 mph /  4.8 km/h 10 mph /  16.1 km/h 46 % 0 in /  0.0 mm
16:27 48.9 °F /  9.4 °C 28 °F /  -2.2 °C 29.9 in /  1013.8 hPa NNW 7 mph /  11.3 km/h 11 mph /  17.7 km/h 44 % 0 in /  0.0 mm
16:32 49.5 °F /  9.7 °C 29.5 °F /  -1.4 °C 29.9 in /  1013.8 hPa NE 8 mph /  12.9 km/h 11 mph /  17.7 km/h 46 % 0 in /  0.0 mm
16:37 50.2 °F /  10.1 °C 31.8 °F /  -0.1 °C 29.9 in /  1013.8 hPa North 5 mph /  8.0 km/h 11 mph /  17.7 km/h 49 % 0 in /  0.0 mm
16:42 50.5 °F /  10.3 °C 31.1 °F /  -0.5 °C 29.9 in /  1013.8 hPa WNW 6 mph /  9.7 km/h 11 mph /  17.7 km/h 47 % 0 in /  0.0 mm
16:47 50.7 °F /  10.4 °C 30.7 °F /  -0.7 °C 29.9 in /  1013.8 hPa ENE 8 mph /  12.9 km/h 11 mph /  17.7 km/h 46 % 0 in /  0.0 mm
16:52 50 °F /  10.0 °C 27.1 °F /  -2.7 °C 29.9 in /  1013.8 hPa North 2 mph /  3.2 km/h 11 mph /  17.7 km/h 41 % 0 in /  0.0 mm
16:57 49.8 °F /  9.9 °C 28.2 °F /  -2.1 °C 29.9 in /  1013.8 hPa NE 10 mph /  16.1 km/h 11 mph /  17.7 km/h 43 % 0 in /  0.0 mm
17:02 49.5 °F /  9.7 °C 29.5 °F /  -1.4 °C 29.9 in /  1013.8 hPa North 6 mph /  9.7 km/h 11 mph /  17.7 km/h 46 % 0 in /  0.0 mm
17:17 51.1 °F /  10.6 °C 29.3 °F /  -1.5 °C 29.9 in /  1013.8 hPa NE 4 mph /  6.4 km/h 12 mph /  19.3 km/h 43 % 0 in /  0.0 mm
17:22 50.5 °F /  10.3 °C 30.6 °F /  -0.8 °C 29.9 in /  1013.8 hPa NE 6 mph /  9.7 km/h 7 mph /  11.3 km/h 46 % 0 in /  0.0 mm
17:27 49.6 °F /  9.8 °C 28 °F /  -2.2 °C 29.9 in /  1013.8 hPa North 1 mph /  1.6 km/h 12 mph /  19.3 km/h 43 % 0 in /  0.0 mm
17:32 49.5 °F /  9.7 °C 26.1 °F /  -3.3 °C 29.9 in /  1013.8 hPa NNE 1 mph /  1.6 km/h 12 mph /  19.3 km/h 40 % 0 in /  0.0 mm
17:37 49.6 °F /  9.8 °C 27 °F /  -2.8 °C 29.9 in /  1013.8 hPa Calm   10 mph /  16.1 km/h 41 % 0 in /  0.0 mm
17:42 49.6 °F /  9.8 °C 26.2 °F /  -3.2 °C 29.9 in /  1013.8 hPa NW 3 mph /  4.8 km/h 10 mph /  16.1 km/h 40 % 0 in /  0.0 mm
17:52 50.4 °F /  10.2 °C 26.4 °F /  -3.1 °C 29.9 in /  1013.8 hPa NNW 3 mph /  4.8 km/h 4 mph /  6.4 km/h 39 % 0 in /  0.0 mm
17:57 50.4 °F /  10.2 °C 26.4 °F /  -3.1 °C 29.9 in /  1013.8 hPa WNW 3 mph /  4.8 km/h 5 mph /  8.0 km/h 39 % 0 in /  0.0 mm
18:02 51.1 °F /  10.6 °C 27.7 °F /  -2.4 °C 29.9 in /  1013.8 hPa NE 2 mph /  3.2 km/h 9 mph /  14.5 km/h 40 % 0 in /  0.0 mm
18:17 52 °F /  11.1 °C 28.9 °F /  -1.7 °C 29.9 in /  1013.8 hPa North 6 mph /  9.7 km/h 6 mph /  9.7 km/h 41 % 0 in /  0.0 mm
18:22 51.3 °F /  10.7 °C 28.4 °F /  -2.0 °C 29.9 in /  1013.8 hPa NE 8 mph /  12.9 km/h 8 mph /  12.9 km/h 41 % 0 in /  0.0 mm
18:32 49.6 °F /  9.8 °C 29.7 °F /  -1.3 °C 29.9 in /  1014.1 hPa NNW 1 mph /  1.6 km/h 12 mph /  19.3 km/h 46 % 0 in /  0.0 mm
18:37 49.3 °F /  9.6 °C 29.3 °F /  -1.5 °C 29.9 in /  1014.1 hPa NNW 3 mph /  4.8 km/h 12 mph /  19.3 km/h 46 % 0 in /  0.0 mm
18:42 49.1 °F /  9.5 °C 29.1 °F /  -1.6 °C 29.9 in /  1014.1 hPa NW 2 mph /  3.2 km/h 12 mph /  19.3 km/h 46 % 0 in /  0.0 mm
18:52 48.7 °F /  9.3 °C 26.6 °F /  -3.0 °C 29.9 in /  1014.1 hPa WNW 3 mph /  4.8 km/h 6 mph /  9.7 km/h 42 % 0 in /  0.0 mm
18:57 48.7 °F /  9.3 °C 26.1 °F /  -3.3 °C 29.9 in /  1014.1 hPa North 2 mph /  3.2 km/h 5 mph /  8.0 km/h 41 % 0 in /  0.0 mm
19:02 48.7 °F /  9.3 °C 26.6 °F /  -3.0 °C 29.9 in /  1014.1 hPa Calm   7 mph /  11.3 km/h 42 % 0 in /  0.0 mm
19:12 49.3 °F /  9.6 °C 27.1 °F /  -2.7 °C 29.9 in /  1014.1 hPa ENE 2 mph /  3.2 km/h 7 mph /  11.3 km/h 42 % 0 in /  0.0 mm
19:17 48.9 °F /  9.4 °C 29.1 °F /  -1.6 °C 29.9 in /  1014.1 hPa ENE 4 mph /  6.4 km/h 4 mph /  6.4 km/h 46 % 0 in /  0.0 mm
19:22 48.7 °F /  9.3 °C 29.8 °F /  -1.2 °C 29.9 in /  1014.1 hPa East 1 mph /  1.6 km/h 4 mph /  6.4 km/h 48 % 0 in /  0.0 mm
19:27 48.4 °F /  9.1 °C 31.1 °F /  -0.5 °C 29.9 in /  1014.1 hPa Calm   5 mph /  8.0 km/h 51 % 0 in /  0.0 mm
19:32 48.2 °F /  9.0 °C 31.5 °F /  -0.3 °C 29.9 in /  1014.1 hPa Calm   5 mph /  8.0 km/h 52 % 0 in /  0.0 mm
19:42 47.7 °F /  8.7 °C 32.4 °F /  0.2 °C 30 in /  1014.4 hPa Calm   3 mph /  4.8 km/h 55 % 0 in /  0.0 mm
19:47 47.5 °F /  8.6 °C 31.6 °F /  -0.2 °C 30 in /  1014.4 hPa Calm   3 mph /  4.8 km/h 54 % 0 in /  0.0 mm
19:52 47.3 °F /  8.5 °C 32.4 °F /  0.2 °C 30 in /  1014.4 hPa Calm   2 mph /  3.2 km/h 56 % 0 in /  0.0 mm
19:57 47.1 °F /  8.4 °C 32.2 °F /  0.1 °C 30 in /  1014.4 hPa Calm   1 mph /  1.6 km/h 56 % 0 in /  0.0 mm
20:02 46.9 °F /  8.3 °C 32.5 °F /  0.3 °C 30 in /  1014.4 hPa West 2 mph /  3.2 km/h 2 mph /  3.2 km/h 57 % 0 in /  0.0 mm
20:07 46.8 °F /  8.2 °C 31.8 °F /  -0.1 °C 30 in /  1014.4 hPa NNW 10 mph /  16.1 km/h 10 mph /  16.1 km/h 56 % 0 in /  0.0 mm
20:17 45.9 °F /  7.7 °C 33.6 °F /  0.9 °C 30 in /  1014.8 hPa WNW 5 mph /  8.0 km/h 14 mph /  22.5 km/h 62 % 0 in /  0.0 mm
20:22 45.7 °F /  7.6 °C 33.8 °F /  1.0 °C 30 in /  1014.8 hPa NW 6 mph /  9.7 km/h 14 mph /  22.5 km/h 63 % 0 in /  0.0 mm
20:32 45.1 °F /  7.3 °C 34.5 °F /  1.4 °C 30 in /  1014.8 hPa NE 10 mph /  16.1 km/h 11 mph /  17.7 km/h 66 % 0 in /  0.0 mm
20:42 44.6 °F /  7.0 °C 34.7 °F /  1.5 °C 30 in /  1015.1 hPa NNE 7 mph /  11.3 km/h 11 mph /  17.7 km/h 68 % 0 in /  0.0 mm
20:47 44.4 °F /  6.9 °C 34.5 °F /  1.4 °C 30 in /  1015.1 hPa WNW 1 mph /  1.6 km/h 10 mph /  16.1 km/h 68 % 0 in /  0.0 mm
20:52 44.2 °F /  6.8 °C 34.3 °F /  1.3 °C 30 in /  1015.1 hPa NW 6 mph /  9.7 km/h 10 mph /  16.1 km/h 68 % 0 in /  0.0 mm
21:02 43.7 °F /  6.5 °C 34.9 °F /  1.6 °C 30 in /  1015.1 hPa NW 4 mph /  6.4 km/h 10 mph /  16.1 km/h 71 % 0 in /  0.0 mm
21:12 43.2 °F /  6.2 °C 34.7 °F /  1.5 °C 30 in /  1015.1 hPa Calm   9 mph /  14.5 km/h 72 % 0 in /  0.0 mm
21:17 42.8 °F /  6.0 °C 34.7 °F /  1.5 °C 30 in /  1015.5 hPa NW 4 mph /  6.4 km/h 6 mph /  9.7 km/h 73 % 0 in /  0.0 mm
21:22 42.6 °F /  5.9 °C 34.5 °F /  1.4 °C 30 in /  1015.5 hPa WNW 4 mph /  6.4 km/h 6 mph /  9.7 km/h 73 % 0 in /  0.0 mm
21:32 42.3 °F /  5.7 °C 34.5 °F /  1.4 °C 30 in /  1015.5 hPa WNW 2 mph /  3.2 km/h 8 mph /  12.9 km/h 74 % 0 in /  0.0 mm
21:42 42.3 °F /  5.7 °C 34.2 °F /  1.2 °C 30 in /  1015.8 hPa NNW 1 mph /  1.6 km/h 7 mph /  11.3 km/h 73 % 0 in /  0.0 mm
21:52 42.1 °F /  5.6 °C 34 °F /  1.1 °C 30 in /  1016.1 hPa NNW 3 mph /  4.8 km/h 8 mph /  12.9 km/h 73 % 0 in /  0.0 mm
21:57 41.9 °F /  5.5 °C 33.8 °F /  1.0 °C 30 in /  1016.1 hPa North 3 mph /  4.8 km/h 8 mph /  12.9 km/h 73 % 0 in /  0.0 mm
22:02 41.7 °F /  5.4 °C 33.6 °F /  0.9 °C 30 in /  1016.1 hPa NNW 4 mph /  6.4 km/h 10 mph /  16.1 km/h 73 % 0 in /  0.0 mm
22:07 41.7 °F /  5.4 °C 34 °F /  1.1 °C 30 in /  1016.1 hPa NW 5 mph /  8.0 km/h 10 mph /  16.1 km/h 74 % 0 in /  0.0 mm
22:17 41.5 °F /  5.3 °C 34.2 °F /  1.2 °C 30 in /  1016.5 hPa NW 7 mph /  11.3 km/h 12 mph /  19.3 km/h 75 % 0 in /  0.0 mm
22:22 41.4 °F /  5.2 °C 34.3 °F /  1.3 °C 30 in /  1016.5 hPa WNW 4 mph /  6.4 km/h 12 mph /  19.3 km/h 76 % 0 in /  0.0 mm
22:32 41 °F /  5.0 °C 34.3 °F /  1.3 °C 30 in /  1016.5 hPa NW 1 mph /  1.6 km/h 10 mph /  16.1 km/h 77 % 0 in /  0.0 mm
22:37 40.8 °F /  4.9 °C 34.5 °F /  1.4 °C 30 in /  1016.8 hPa Calm   10 mph /  16.1 km/h 78 % 0 in /  0.0 mm
22:42 40.6 °F /  4.8 °C 34.3 °F /  1.3 °C 30 in /  1016.8 hPa NW 1 mph /  1.6 km/h 10 mph /  16.1 km/h 78 % 0 in /  0.0 mm
22:47 40.6 °F /  4.8 °C 34.7 °F /  1.5 °C 30 in /  1016.8 hPa WNW 2 mph /  3.2 km/h 7 mph /  11.3 km/h 79 % 0 in /  0.0 mm
22:52 40.5 °F /  4.7 °C 34.5 °F /  1.4 °C 30 in /  1016.8 hPa NNW 1 mph /  1.6 km/h 7 mph /  11.3 km/h 79 % 0 in /  0.0 mm
22:57 40.3 °F /  4.6 °C 34.5 °F /  1.4 °C 30 in /  1016.8 hPa West 1 mph /  1.6 km/h 7 mph /  11.3 km/h 80 % 0 in /  0.0 mm
23:02 40.3 °F /  4.6 °C 34.5 °F /  1.4 °C 30 in /  1016.8 hPa NNW 5 mph /  8.0 km/h 7 mph /  11.3 km/h 80 % 0 in /  0.0 mm
23:12 39.9 °F /  4.4 °C 34.5 °F /  1.4 °C 30 in /  1016.8 hPa NNW 2 mph /  3.2 km/h 7 mph /  11.3 km/h 81 % 0 in /  0.0 mm
23:17 39.9 °F /  4.4 °C 34.9 °F /  1.6 °C 30 in /  1016.8 hPa North 5 mph /  8.0 km/h 7 mph /  11.3 km/h 82 % 0 in /  0.0 mm
23:22 39.9 °F /  4.4 °C 34.9 °F /  1.6 °C 30 in /  1016.8 hPa North 2 mph /  3.2 km/h 7 mph /  11.3 km/h 82 % 0 in /  0.0 mm
23:32 39.7 °F /  4.3 °C 35.1 °F /  1.7 °C 30 in /  1016.8 hPa NW 2 mph /  3.2 km/h 7 mph /  11.3 km/h 83 % 0 in /  0.0 mm
23:37 39.6 °F /  4.2 °C 34.9 °F /  1.6 °C 30 in /  1016.8 hPa NW 2 mph /  3.2 km/h 7 mph /  11.3 km/h 83 % 0 in /  0.0 mm
23:42 39.6 °F /  4.2 °C 34.9 °F /  1.6 °C 30 in /  1016.8 hPa NW 2 mph /  3.2 km/h 6 mph /  9.7 km/h 83 % 0 in /  0.0 mm
23:47 39.6 °F /  4.2 °C 34.9 °F /  1.6 °C 30 in /  1016.8 hPa NW 1 mph /  1.6 km/h 7 mph /  11.3 km/h 83 % 0 in /  0.0 mm
23:52 39.4 °F /  4.1 °C 34.7 °F /  1.5 °C 30 in /  1016.8 hPa Calm   7 mph /  11.3 km/h 83 % 0 in /  0.0 mm
Meteo18
Compliments of Weather Underground - 4 mb

Script developed by  Jim McMurry - jmcmurry@mwt.net Adapted for the template by  Wim van der Kuil - Leuven-Template.eu

You find our weather info also at:

European Weather Network

Weather Underground

Equipment we use:

Weather-station
Davis Vue

Weather-program
Meteohub

Weather-server
Raspberry PI 2 B+

Provider
1 and 1

Davis Vue

Meteohub

Raspberry PI 2 B+

1 and 1